Home > Weather > Springfield > Past weeks

Flag for U.S.A. Weather for the Past 2 Weeks in Springfield, Illinois, U.S.A.

Now
41 °F

Sunny.


Feels Like: 35 °F
Forecast: 36 / 49 °F
Wind: 10 mph from Southwest

Location: Capital Airport

Current Time: Feb 7, 2016 at 9:16:23 AM

Latest Report: Feb 7, 2016 at 8:52 AM


Visibility: 10 mi

Pressure: 29.94 "Hg

Humidity: 60%

Dew point: 28 °F

Location of SpringfieldLocation

Historic Weather in Springfield — Graph

°F

Springfield Temperature Yesterday

Maximum temperature yesterday: 51 °F (at 2:52 PM)
Minimum temperature yesterday: 26 °F (at 12:52 AM)
Average temperature yesterday: 38 °F

High & Low Weather Summary for the Past Weeks

 TemperatureHumidityPressure
High62 °F (Jan 31, 12:52 PM)97% (Feb 1, 1:52 AM)30.45 "Hg (Feb 1, 1:52 AM)
Low16 °F (Jan 23, 7:52 AM)41% (Feb 1, 2:52 PM)29.46 "Hg (Feb 2, 2:52 PM)
Average37 °F73%29.99 "Hg
* Reported Jan 23 7:52 AM — Feb 7 7:52 AM, Springfield, Weather by CustomWeather, © 2016

Note: Actual official high and low records may vary slightly from our data, if they occured in-between our weather recording intervals... More about our weather records

Advertising

Springfield Weather History for the Previous 24 Hours

 ConditionsComfort  
Time TempWeatherWind HumidityBarometerVisibility
7:52 AM
Sun, Feb 7
40 °FSunny.13 mph63%29.95 "Hg10 mi
6:52 AM38 °FClear.13 mph68%29.97 "Hg10 mi
5:52 AM39 °FClear.16 mph65%29.98 "Hg10 mi
4:52 AM39 °FClear.13 mph67%30.01 "Hg10 mi
3:52 AM39 °FClear.13 mph70%30.04 "Hg10 mi
2:52 AM39 °FClear.14 mph67%30.08 "Hg10 mi
1:52 AM40 °FClear.12 mph63%30.10 "Hg10 mi
12:52 AM38 °FClear.7 mph68%30.11 "Hg10 mi
11:52 PM
Sat, Feb 6
36 °FClear.3 mph73%30.12 "Hg10 mi
10:52 PM37 °FClear.6 mph73%30.14 "Hg10 mi
9:52 PM36 °FClear.5 mph75%30.16 "Hg10 mi
8:52 PM39 °FClear.5 mph70%30.17 "Hg10 mi
7:52 PM38 °FClear.5 mph76%30.18 "Hg10 mi
6:52 PM40 °FClear.6 mph68%30.19 "Hg10 mi
5:52 PM45 °FClear.No wind60%30.19 "Hg10 mi
4:52 PM49 °FSunny.7 mph50%30.19 "Hg10 mi
3:52 PM51 °FSunny.9 mph46%30.19 "Hg10 mi
2:52 PM51 °FSunny.9 mph42%30.21 "Hg10 mi
1:52 PM50 °FSunny.12 mph46%30.22 "Hg10 mi
12:52 PM49 °FSunny.10 mph44%30.24 "Hg10 mi
11:52 AM47 °FSunny.8 mph48%30.28 "Hg10 mi
10:52 AM42 °FSunny.8 mph57%30.30 "Hg10 mi
9:52 AM38 °FSunny.6 mph65%30.32 "Hg10 mi
Weather by CustomWeather, © 2016

See weather overviewHow to use our weather pages